sat.trackr.live / text

‹ back to catalog

GONETS-M 8

NORAD 40061 · 2014-036A

PAYLOAD ACTIVE UNKNOWN

§ Identity

Operator
Country
CIS
Launch date
2014-07-03
Launch site
PLMSC
Launch vehicle
Mass (kg)
RCS (m²)
1.72

External: N2YO · Heavens-Above · Gunter

§ Orbital elements

Epoch: 2026-09-20T04:29:02.378112Z

Period
115.85 min
Inclination
82.5061°
Eccentricity
0.0028826
Mean motion
12.42987393 rev/d
Perigee alt
1,471.3 km
Apogee alt
1,516.7 km
Semi-major
7,872.1 km
B*
-3.3208e-4
RAAN
248.5563°
Arg perigee
303.6614°
Mean anomaly
56.1717°
Rev number
55,425

§ Raw data

GONETS-M 81 40061U 14036A   26263.18683308 -.00000036  00000+0 -33208-3 0  99902 40061  82.5061 248.5563 0028826 303.6614  56.1717 12.42987393554253

JSON: /api/v1/satellites/40061 · /tle

For live sub-satellite position, see the globe view (requires WebGL).

§ Visibility from observer

Set your observer location to see the next 7 days of passes ≥ 10°. The values pass through the URL so the page stays shareable.

No JS? Fill the form by hand. The geolocation button needs JavaScript.